ITY405 LIRF-LIMC

Flight info

Callsign ITY405
Flight time N/A
Altitude 32000
Route NEMBO DCT ELB DCT NORNI DCT UPDIN DCT SPEZI DCT IDONA DCT MEBUR
Aircraft A320/M-SDE3FGHIRWY/LB1

Departure

Time 2026-05-05 19:49
Airport Rome–Fiumicino Leonardo da Vinci International Airport (LIRF)

Arrival

Time N/A
Airport Milan Malpensa International Airport (LIMC)
Time Latitude Longitude Altitude Speed Heading
2026-05-05 19:31 41.79767 12.25667 19 ft 0 kts 295°
2026-05-05 19:40 41.79762 12.25683 18 ft 2 kts 294°
2026-05-05 19:40 41.79755 12.25703 20 ft 2 kts 296°
2026-05-05 19:41 41.79747 12.25722 20 ft 2 kts 335°
2026-05-05 19:41 41.79731 12.25724 22 ft 2 kts 22°
2026-05-05 19:41 41.79724 12.25720 19 ft 0 kts 25°
2026-05-05 19:41 41.79724 12.25719 19 ft 0 kts 25°
2026-05-05 19:43 41.79767 12.25743 19 ft 19 kts 23°
2026-05-05 19:44 41.79909 12.25843 18 ft 24 kts 26°
2026-05-05 19:44 41.80067 12.25942 17 ft 26 kts 26°
2026-05-05 19:44 41.80204 12.26026 14 ft 22 kts 25°
2026-05-05 19:44 41.80346 12.26114 13 ft 23 kts 25°
2026-05-05 19:45 41.80493 12.26171 12 ft 16 kts 347°
2026-05-05 19:45 41.80526 12.26223 13 ft 6 kts 79°
2026-05-05 19:45 41.80548 12.26312 16 ft 12 kts 70°
2026-05-05 19:45 41.80580 12.26424 15 ft 14 kts 69°
2026-05-05 19:46 41.80621 12.26573 13 ft 20 kts 68°
2026-05-05 19:46 41.80673 12.26761 12 ft 23 kts 70°
2026-05-05 19:46 41.80731 12.26968 8 ft 21 kts 67°
2026-05-05 19:46 41.80792 12.27046 9 ft 7 kts 354°
2026-05-05 19:47 41.80834 12.27025 8 ft 10 kts 341°
2026-05-05 19:47 41.80941 12.26972 9 ft 17 kts 329°
2026-05-05 19:47 41.80940 12.26869 10 ft 0 kts 253°
2026-05-05 19:48 41.80939 12.26864 10 ft 7 kts 251°
2026-05-05 19:48 41.80822 12.26438 16 ft 85 kts 250°
2026-05-05 19:48 41.80544 12.25438 13 ft 143 kts 249°
2026-05-05 19:48 41.80138 12.24004 146 ft 177 kts 245°
2026-05-05 19:49 41.79736 12.22459 797 ft 175 kts 243°
2026-05-05 19:49 41.79446 12.21451 1276 ft 177 kts 246°
2026-05-05 19:49 41.79240 12.19067 1783 ft 210 kts 263°
2026-05-05 19:49 41.79183 12.16995 2188 ft 235 kts 264°
2026-05-05 19:50 41.79126 12.14703 2740 ft 253 kts 264°
2026-05-05 19:50 41.79071 12.12331 3614 ft 257 kts 265°
2026-05-05 19:50 41.79016 12.09916 4520 ft 261 kts 265°
2026-05-05 19:50 41.78985 12.07475 5398 ft 265 kts 267°
2026-05-05 19:51 41.78983 12.04986 6260 ft 269 kts 267°
2026-05-05 19:51 41.78989 12.02486 7168 ft 269 kts 266°
2026-05-05 19:51 41.78996 12.00009 8049 ft 270 kts 267°
2026-05-05 19:51 41.79001 11.97471 8874 ft 274 kts 267°
2026-05-05 19:52 41.79003 11.94909 9759 ft 275 kts 266°
2026-05-05 19:52 41.78999 11.92321 10372 ft 286 kts 268°
2026-05-05 19:52 41.78990 11.89545 10594 ft 309 kts 268°
2026-05-05 19:52 41.78979 11.86590 11063 ft 321 kts 268°
2026-05-05 19:53 41.78969 11.83573 11748 ft 326 kts 268°
2026-05-05 19:53 41.78960 11.80523 12522 ft 329 kts 268°
2026-05-05 19:53 41.78950 11.77448 13267 ft 332 kts 268°
2026-05-05 19:53 41.78938 11.74338 13947 ft 335 kts 268°
2026-05-05 19:54 41.78925 11.71243 14568 ft 339 kts 268°
2026-05-05 19:54 41.78907 11.68025 15196 ft 342 kts 268°
2026-05-05 19:54 41.78886 11.64832 15866 ft 344 kts 268°
2026-05-05 19:54 41.79059 11.61616 16501 ft 350 kts 280°
2026-05-05 19:55 41.79976 11.58611 17095 ft 360 kts 299°
2026-05-05 19:55 41.81655 11.56063 17705 ft 369 kts 313°
2026-05-05 19:55 41.83533 11.53701 18329 ft 372 kts 313°
2026-05-05 19:55 41.85443 11.51332 18856 ft 375 kts 313°
2026-05-05 19:56 41.87370 11.48950 19386 ft 378 kts 313°
2026-05-05 19:56 41.89313 11.46541 19923 ft 381 kts 313°
2026-05-05 19:56 41.91266 11.44110 20452 ft 384 kts 313°
2026-05-05 19:56 41.93224 11.41660 20984 ft 387 kts 313°
2026-05-05 19:57 41.95195 11.39185 21520 ft 389 kts 313°
2026-05-05 19:57 41.96508 11.37532 21870 ft 391 kts 313°
2026-05-05 19:57 41.99176 11.34169 22569 ft 395 kts 313°
2026-05-05 19:57 42.01189 11.31629 23074 ft 398 kts 313°
2026-05-05 19:58 42.03218 11.29069 23566 ft 401 kts 313°
2026-05-05 19:58 42.05259 11.26493 23986 ft 403 kts 313°
2026-05-05 19:58 42.07286 11.23932 24403 ft 406 kts 313°
2026-05-05 19:58 42.09348 11.21324 24809 ft 407 kts 312°
2026-05-05 19:59 42.11417 11.18708 25225 ft 409 kts 312°
2026-05-05 19:59 42.13495 11.16080 25628 ft 410 kts 311°
2026-05-05 19:59 42.15574 11.13447 26028 ft 411 kts 311°
2026-05-05 19:59 42.17662 11.10801 26422 ft 413 kts 311°
2026-05-05 20:00 42.19761 11.08135 26806 ft 414 kts 311°
2026-05-05 20:00 42.21867 11.05453 27190 ft 415 kts 310°
2026-05-05 20:00 42.23964 11.02779 27568 ft 416 kts 310°
2026-05-05 20:00 42.26063 11.00102 27930 ft 418 kts 310°
2026-05-05 20:01 42.28171 10.97421 28295 ft 419 kts 310°
2026-05-05 20:01 42.30307 10.94709 28646 ft 420 kts 310°
2026-05-05 20:01 42.32429 10.92008 28989 ft 422 kts 310°
2026-05-05 20:01 42.34590 10.89252 29345 ft 423 kts 310°
2026-05-05 20:02 42.36712 10.86542 29655 ft 425 kts 309°
2026-05-05 20:02 42.38880 10.83765 29970 ft 426 kts 309°
2026-05-05 20:02 42.41030 10.81004 30241 ft 427 kts 309°
2026-05-05 20:02 42.43170 10.78250 30480 ft 428 kts 309°
2026-05-05 20:03 42.45323 10.75477 30690 ft 430 kts 309°
2026-05-05 20:03 42.47486 10.72694 30918 ft 431 kts 309°
2026-05-05 20:03 42.49671 10.69885 31135 ft 433 kts 309°
2026-05-05 20:03 42.51855 10.67074 31393 ft 433 kts 309°
2026-05-05 20:04 42.54034 10.64267 31716 ft 431 kts 309°
2026-05-05 20:04 42.56207 10.61464 31950 ft 431 kts 309°
2026-05-05 20:04 42.58339 10.58714 31988 ft 419 kts 309°
2026-05-05 20:05 42.62515 10.53323 31985 ft 412 kts 308°
2026-05-05 20:05 42.66624 10.47981 31986 ft 411 kts 308°
2026-05-05 20:06 42.70742 10.42614 31986 ft 411 kts 308°
2026-05-05 20:06 42.75346 10.37842 31984 ft 426 kts 323°
2026-05-05 20:07 42.80548 10.33958 32000 ft 426 kts 323°
2026-05-05 20:07 42.85711 10.30069 31994 ft 426 kts 323°
2026-05-05 20:08 42.90896 10.26148 31994 ft 426 kts 323°
2026-05-05 20:08 42.96080 10.22227 31988 ft 426 kts 323°
2026-05-05 20:09 43.00388 10.18964 32012 ft 427 kts 323°
2026-05-05 20:09 43.05584 10.15014 31972 ft 428 kts 323°
2026-05-05 20:10 43.10787 10.11046 31967 ft 429 kts 323°
2026-05-05 20:10 43.16008 10.07069 31964 ft 430 kts 323°
2026-05-05 20:11 43.21262 10.03058 31986 ft 430 kts 322°
2026-05-05 20:11 43.26470 9.99067 31969 ft 431 kts 322°
2026-05-05 20:12 43.31708 9.95041 31965 ft 432 kts 322°
2026-05-05 20:12 43.36924 9.91039 31969 ft 432 kts 322°
2026-05-05 20:13 43.42162 9.87015 31979 ft 432 kts 322°
2026-05-05 20:13 43.47414 9.82963 32011 ft 432 kts 322°
2026-05-05 20:14 43.52646 9.78916 31993 ft 432 kts 321°
2026-05-05 20:14 43.57892 9.74847 31988 ft 432 kts 321°
2026-05-05 20:15 43.63107 9.70793 32011 ft 429 kts 321°
2026-05-05 20:15 43.68411 9.66640 31993 ft 446 kts 321°
2026-05-05 20:16 43.73892 9.62348 31977 ft 457 kts 321°
2026-05-05 20:16 43.76622 9.60231 31971 ft 442 kts 321°
2026-05-05 20:16 43.79283 9.58174 31975 ft 435 kts 321°
2026-05-05 20:17 43.84526 9.54081 31977 ft 432 kts 321°
2026-05-05 20:17 43.89750 9.49976 31972 ft 432 kts 321°
2026-05-05 20:18 43.94973 9.45869 32008 ft 432 kts 320°
2026-05-05 20:18 44.00530 9.42405 31706 ft 447 kts 335°
2026-05-05 20:18 44.03514 9.41390 31238 ft 446 kts 337°
2026-05-05 20:19 44.06527 9.40407 30733 ft 443 kts 337°
2026-05-05 20:19 44.09520 9.39439 30261 ft 440 kts 338°
2026-05-05 20:19 44.12484 9.38477 29753 ft 436 kts 338°
2026-05-05 20:19 44.15428 9.37512 29227 ft 432 kts 338°
2026-05-05 20:20 44.18330 9.36548 28686 ft 429 kts 338°
2026-05-05 20:20 44.21223 9.35579 28171 ft 426 kts 338°
2026-05-05 20:20 44.24093 9.34617 27675 ft 423 kts 338°
2026-05-05 20:20 44.26937 9.33664 27252 ft 418 kts 338°
2026-05-05 20:21 44.29706 9.32748 26873 ft 404 kts 338°
2026-05-05 20:21 44.32423 9.31850 26461 ft 398 kts 338°
2026-05-05 20:21 44.35101 9.30959 26095 ft 394 kts 339°
2026-05-05 20:21 44.37756 9.30070 25681 ft 391 kts 339°
2026-05-05 20:22 44.40397 9.29181 25275 ft 389 kts 339°
2026-05-05 20:22 44.43021 9.28293 24871 ft 387 kts 339°
2026-05-05 20:22 44.45633 9.27411 24463 ft 385 kts 340°
2026-05-05 20:22 44.48237 9.26533 24059 ft 384 kts 340°
2026-05-05 20:23 44.50824 9.25662 23642 ft 382 kts 340°
2026-05-05 20:23 44.53400 9.24796 23196 ft 380 kts 340°
2026-05-05 20:23 44.55948 9.23940 22726 ft 377 kts 340°
2026-05-05 20:23 44.58496 9.23083 22330 ft 375 kts 340°
2026-05-05 20:24 44.61015 9.22235 21935 ft 372 kts 340°
2026-05-05 20:24 44.63522 9.21390 21552 ft 368 kts 341°
2026-05-05 20:24 44.66007 9.20552 21152 ft 365 kts 340°
2026-05-05 20:24 44.68478 9.19717 20764 ft 363 kts 340°
2026-05-05 20:25 44.70929 9.18887 20366 ft 361 kts 340°
2026-05-05 20:25 44.73332 9.18072 20035 ft 359 kts 340°
2026-05-05 20:25 44.75754 9.17252 19655 ft 357 kts 341°
2026-05-05 20:25 44.78151 9.16422 19309 ft 354 kts 340°
2026-05-05 20:26 44.80556 9.15698 18960 ft 356 kts 351°
2026-05-05 20:26 44.83036 9.16011 18576 ft 360 kts 14°
2026-05-05 20:26 44.85253 9.17612 17946 ft 359 kts 39°
2026-05-05 20:26 44.86869 9.20243 17236 ft 354 kts 63°
2026-05-05 20:27 44.87712 9.23439 16557 ft 345 kts 84°
2026-05-05 20:27 44.87744 9.26764 15911 ft 333 kts 104°
2026-05-05 20:27 44.87040 9.29783 15289 ft 321 kts 124°
2026-05-05 20:27 44.85757 9.32216 14681 ft 309 kts 142°
2026-05-05 20:28 44.84114 9.34143 14035 ft 305 kts 148°
2026-05-05 20:28 44.82391 9.35930 13375 ft 303 kts 149°
2026-05-05 20:28 44.80687 9.37588 13028 ft 301 kts 150°
2026-05-05 20:28 44.78946 9.39235 12958 ft 300 kts 151°
2026-05-05 20:29 44.77204 9.40871 12968 ft 302 kts 151°
2026-05-05 20:29 44.75445 9.42475 12979 ft 300 kts 157°